STARLINK-11505, 62469

Orbit data source: Space-Track

STARLINK-11505, 62469 is a payload satellite owned by SpaceX/Seattle (US) in LEO that was launched on Tue, 31 Dec 2024 UTC via an FALCON 9 launch vehicle from the Air Force Eastern Test Range (AFETR). Payload-class satellites include a variety of spacecraft equipped with specific instruments for various scientific and technological missions. These include communications satellites like Starlink; space stations such as the ISS; scientific satellites like the Hubble; Earth observation satellites from companies like Planet Labs, Umbra, and HawkEye 360; GPS; miniature CubeSats for education and research; and military/defense satellites.

Loading next visibility...
Identifier
62469, 2024-254H
Orbit
LEO
Country
Flag of USUS
Related business
Manufacturer
SpaceX/Seattle
Mission
Operational Commercial Communications
Bus & Motor
STARLINK V2MD, Unknown motor
Mass
960 kg wet, ~910 kg dry
Launch date (UTC)
2024-12-31 (9 months ago)
Launch vehicle
FALCON 9
Launch site
Air Force Eastern Test Range (AFETR)
Object type
Payload
Rocket body
Debris
Shape & HBR
Box + 2 Pan, 14.5 m
Radar Cross Section
36.964 m², Large (>1 m²)

Expand to show TLE details & history
Last TLE update: 20 hours ago

TLE from 20 hours ago
0 STARLINK-11505
1 62469U 24254H   25258.20607006  .00408448  00000-0  30055-2 0  9990
2 62469  43.0007 200.6118 0004214 272.1695  87.8690 15.71053795 41796
Epoch: 2025-09-15T04:56Z
TLE epoch observation values (Epoch: 2025-09-15T04:56:44.453Z)
Latitude
-0.00002°
Longitude
132.01251°
Altitude
355.551 km
Speed
7.698 km/s
True Right ascension
13h 22m 26s
True Declination
0° 00' 00"
Sunlit
Object was in daylight at epoch
Visualization orbit readout
Latitude
Unknown
Longitude
Unknown
Altitude
Unknown
Speed
Unknown
Apparent Right ascension
Unknown
Apparent Declination
Unknown
Sunlit
N/A
Visualization observer readout
Local Sidereal Time
17:09:31
Azimuth
Unknown
Elevation
Unknown
Doppler factor
Unknown
Orbital elements
Apogee altitude
360.704 km
Perigee altitude
355.027 km
Semi-major axis
6,736.003 km
Eccentricity
0.00042
Inclination
43.0007°
RAAN
200.6118°
Arg. of periapsis
272.1695°
True anomaly
87.91726°
Mean anomaly
87.869°
Eccentric anomaly
87.89313°
Mean motion
3.92591 °/min
Orbital period
91.7 mins
BSTAR
0.0030055
Loading maneuver chart data...
Computing Atmospheric mass density...
Loading historical data...
Loading historical data...
Loading historical data...
Loading historical data...
Loading historical data...
Loading historical data...
Loading historical data...

Documentation

Showing up to 5 results
|